Regional Weather Roundup
Issued by NWS

Home | Current Version | Previous Version | Text Only | Print | Product List | Glossary On
Versions: 1 2 3 4 5 6 7 8 9 10 11 12 13 14 15 16 17 18 19 20 21 22 23 24 25 26 27 28 29 30 31 32 33 34 35 36 37 38 39 40 41 42 43 44 45 46 47 48 49 50
000
ASUS45 KBOI 182210
RWRID

IDAHO REGIONAL WEATHER ROUNDUP
NATIONAL WEATHER SERVICE BOISE ID
300 PM MST SUN FEB 18 2018

NOTE: "FAIR" INDICATES FEW OR NO CLOUDS BELOW 12000 FEET
WITH NO SIGNIFICANT WEATHER AND/OR OBSTRUCTIONS TO VISIBILITY

IDZ012-014-182300-
SOUTHWEST IDAHO


CITY           SKY/WX    TMP DP  RH WIND       PRES   REMARKS
BOISE          CLOUDY    37  18  46 NW9       29.60F WCI  30
CALDWELL       CLOUDY    40  20  44 N7        29.62S
MOUNTAIN HOME  LGT SNOW  32  32 100 NW23      29.61R FOG     WCI  19
$$

IDZ016-017-182300-
SOUTHCENTRAL IDAHO


CITY           SKY/WX    TMP DP  RH WIND       PRES   REMARKS
BURLEY         PTSUNNY   30  26  85 SW14      29.55F WCI  19
JEROME         PTSUNNY   37  27  67 S12       29.54F WCI  29
TWIN FALLS     CLOUDY    30  28  92 S13       29.55F WCI  20
$$

IDZ019>023-182300-
SOUTHEAST IDAHO


CITY           SKY/WX    TMP DP  RH WIND       PRES   REMARKS
IDAHO FALLS    PTSUNNY   35  25  66 SW25G36   29.47F WCI  23
POCATELLO      PTSUNNY   35  25  66 SW20G29   29.53F WCI  24
REXBURG        CLOUDY    35  24  64 W16G31    29.45S WCI  25
$$

IDZ006-010-011-018-031-032-182300-
CENTRAL IDAHO MOUNTAINS


CITY           SKY/WX    TMP DP  RH WIND       PRES   REMARKS
MCCALL         PTSUNNY   24  16  71 E7        29.47F WCI  16
HAILEY         PTSUNNY   34   7  32 W6        29.47F WCI  29
STANLEY          N/A     21  18  88 SE3       29.44S
SALMON         PTSUNNY   33  21  61 N7        29.47F WCI  27
CHALLIS        PTSUNNY   34  15  46 SW10      29.44F WCI  26
$$

IDZ002-004-006-007-026-182300-
NORTHERN IDAHO


CITY           SKY/WX    TMP DP  RH WIND       PRES   REMARKS
LEWISTON       MOSUNNY   41  21  44 NW13      29.61R
LOWELL           N/A     37  35  92 N3        29.63S
COEUR D`ALENE  LGT SNOW  20  16  84 N25       29.71R VSB 1   WCI   2
MULLAN PASS    SNOW       4   2  91 VRB5      29.49R VSB 1/4 WCI  -5
$$



USA.gov is the U.S. government's official web portal to all federal, state and local government web resources and services.